Salina, KS

5:32 AM CDT on May 26, 2017 (GMT -0500)
Salina Municipal

Weather History for KSLN - September, 2013

Change the Weather History Date:

Monday, September 23, 2013

  Actual Average Record
Temperature  
Mean Temperature 69 °F 67 °F  
Max Temperature 83 °F 79 °F 97 °F (1926)
Min Temperature 55 °F 55 °F 36 °F (1983)
Degree Days  
Heating Degree Days 0 3  
Month to date heating degree days 3 24  
Since 1 July heating degree days 6 25  
Cooling Degree Days 4 4  
Month to date cooling degree days 261 179  
Year to date cooling degree days 1655 1586  
Growing Degree Days 18 (Base 50)    
Moisture  
Dew Point 49 °F    
Average Humidity 54    
Maximum Humidity 77    
Minimum Humidity 31    
Precipitation  
Precipitation 0.00 in 0.09 in 2.61 in (1960)
Month to date precipitation 1.21 2.07  
Year to date precipitation 27.45 26.41  
Sea Level Pressure  
Sea Level Pressure 29.71 in    
Wind  
Wind Speed 17 mph (SSE)    
Max Wind Speed 33 mph    
Max Gust Speed 40 mph    
Visibility 10 miles    
Events      
T = Trace of Precipitation, MM = Missing Value Source: NWS Daily Summary

Daily Weather History Graph

Daily Weather History Graph

Search for Another Location

Airport or City:

Trip Planner

Search our weather history database for the weather conditions in past years. The results will help you decide how hot, cold, wet, or windy it might be!

Date:

Astronomy

Sep. 23, 2013 Rise Set
Actual Time 7:19 AM CDT 7:25 PM CDT
Civil Twilight 6:52 AM CDT 7:52 PM CDT
Nautical Twilight 6:21 AM CDT 8:23 PM CDT
Astronomical Twilight 5:50 AM CDT 8:54 PM CDT
Moon 10:01 PM CDT (9/23) 11:37 AM CDT (9/23)
Length of Visible Light 12h 59m
Length of Day
12h 06m
Waning Gibbous, 81% of the Moon is Illuminated
Sep 23
Waning Gibbous
Sep 26
Last Quarter
Oct 4
New
Oct 11
First Quarter
Oct 18
Full

Hourly Weather History & Observations

Time (CDT) Temp. Dew Point Humidity Pressure Visibility Wind Dir Wind Speed Gust Speed Precip Events Conditions
12:53 AM 61.0 °F 48.0 °F 62% 29.78 in 10.0 mi SE 10.4 mph - N/A   Clear
1:53 AM 61.0 °F 48.0 °F 62% 29.78 in 10.0 mi SSE 11.5 mph - N/A   Clear
2:53 AM 60.1 °F 48.0 °F 64% 29.77 in 10.0 mi SE 11.5 mph - N/A   Clear
3:53 AM 57.9 °F 48.0 °F 70% 29.75 in 10.0 mi SE 12.7 mph - N/A   Clear
4:53 AM 59.0 °F 48.0 °F 67% 29.75 in 10.0 mi SSE 15.0 mph - N/A   Clear
5:53 AM 59.0 °F 48.0 °F 67% 29.77 in 10.0 mi SSE 12.7 mph - N/A   Clear
6:53 AM 55.9 °F 48.0 °F 75% 29.78 in 10.0 mi SE 9.2 mph - N/A   Clear
7:53 AM 57.0 °F 48.9 °F 74% 29.78 in 10.0 mi SE 8.1 mph - N/A   Clear
8:53 AM 64.0 °F 48.9 °F 58% 29.77 in 10.0 mi South 17.3 mph 26.5 mph N/A   Clear
9:53 AM 70.0 °F 50.0 °F 49% 29.75 in 10.0 mi SSE 27.6 mph 33.4 mph N/A   Clear
10:53 AM 73.9 °F 50.0 °F 43% 29.73 in 10.0 mi SSE 28.8 mph 39.1 mph N/A   Clear
11:53 AM 75.9 °F 50.0 °F 40% 29.74 in 10.0 mi South 20.7 mph 29.9 mph N/A   Clear
12:53 PM 80.1 °F 51.1 °F 36% 29.71 in 10.0 mi SSE 21.9 mph 28.8 mph N/A   Clear
1:53 PM 81.0 °F 50.0 °F 34% 29.67 in 10.0 mi South 21.9 mph 35.7 mph N/A   Scattered Clouds
2:53 PM 78.1 °F 48.0 °F 35% 29.65 in 10.0 mi South 23.0 mph 34.5 mph N/A   Mostly Cloudy
3:53 PM 82.0 °F 48.9 °F 31% 29.65 in 10.0 mi South 26.5 mph 35.7 mph N/A   Clear
4:53 PM 81.0 °F 48.9 °F 33% 29.64 in 10.0 mi South 20.7 mph 36.8 mph N/A   Partly Cloudy
5:53 PM 80.1 °F 50.0 °F 35% 29.62 in 10.0 mi SSE 24.2 mph 40.3 mph N/A   Clear
6:53 PM 78.1 °F 50.0 °F 37% 29.62 in 10.0 mi SSE 23.0 mph - N/A   Overcast
7:53 PM 77.0 °F 51.1 °F 40% 29.63 in 10.0 mi SSE 23.0 mph 27.6 mph N/A   Overcast
8:53 PM 75.9 °F 51.1 °F 42% 29.66 in 10.0 mi South 12.7 mph - N/A   Overcast
9:53 PM 75.0 °F 48.9 °F 40% 29.67 in 6.0 mi SSW 12.7 mph - N/A   Haze
10:53 PM 73.0 °F 50.0 °F 44% 29.70 in 10.0 mi NW 12.7 mph - N/A   Overcast
11:53 PM 70.0 °F 51.1 °F 51% 29.72 in 10.0 mi WSW 8.1 mph - N/A   Mostly Cloudy